EW0499 Weather Reports


time (UTC)temp
C
wind
direction
speed
KPH
gust
KPH
rain 1hr
cm
rain 24hr
cm
rain mn
cm
humidity
%
barometer
mb
20260906212003 23 199 4.8 19.3 0.97 0.97 0.97 81 1014.6
20260906211804 23 169 6.4 19.3 0.97 0.97 0.97 82 1014.6
20260906211603 22 144 12.9 19.3 0.97 0.97 0.97 85 1014.8
20260906211404 22 145 9.7 19.3 0.97 0.97 0.97 85 1014.9
20260906211203 22 157 6.4 19.3 0.97 0.97 0.97 86 1015.1
20260906211003 22 202 6.4 19.3 0.97 0.97 0.97 86 1015.4
20260906210803 22 234 11.3 19.3 0.97 0.97 0.97 84 1015.4
20260906210603 22 249 6.4 19.3 0.97 0.97 0.97 82 1015.4
20260906210403 22 189 6.4 19.3 0.97 0.97 0.97 77 1015.4
20260906210203 22 209 6.4 22.5 0.94 0.94 0.94 77 1015.4
20260906210004 22 185 6.4 22.5 0.91 0.91 0.91 76 1015.5
20260906205804 23 148 9.7 22.5 0.86 0.86 0.86 73 1015.5
20260906205603 23 207 9.7 22.5 0.81 0.81 0.81 73 1015.7
20260906205403 24 229 12.9 22.5 0.69 0.69 0.69 70 1015.7
20260906205204 25 214 6.4 22.5 0.56 0.56 0.56 69 1015.7
20260906205003 26 215 6.4 22.5 0.46 0.46 0.46 66 1015.5
20260906204803 26 200 4.8 22.5 0.33 0.33 0.33 60 1015.4
20260906204604 27 187 8.0 22.5 0.25 0.25 0.25 58 1015.4
20260906204403 28 170 8.0 38.6 0.18 0.18 0.18 56 1015.4
20260906204203 28 168 4.8 38.6 0.08 0.08 0.08 54 1015.4
20260906204004 29 127 6.4 38.6 0.05 0.05 0.05 51 1015.6
20260906203824 29 144 6.4 38.6 0.00 0.00 0.00 47 1015.6
20260906203624 29 169 11.3 38.6 0.00 0.00 0.00 46 1015.6
20260906203424 30 153 12.9 35.4 0.00 0.00 0.00 45 1015.5
20260906203225 30 141 16.1 38.6 0.00 0.00 0.00 43 1015.4
20260906203024 30 125 24.1 38.6 0.00 0.00 0.00 43 1015.2
20260906202824 30 131 22.5 38.6 0.00 0.00 0.00 43 1015.1
20260906202604 30 131 20.9 38.6 0.00 0.00 0.00 44 1015.1
20260906202403 30 138 17.7 45.1 0.00 0.00 0.00 42 1015.0
20260906202203 30 148 19.3 45.1 0.00 0.00 0.00 42 1014.9
20260906202004 31 132 20.9 45.1 0.00 0.00 0.00 42 1014.9
20260906201803 31 119 19.3 45.1 0.00 0.00 0.00 42 1014.9
20260906201603 31 133 20.9 45.1 0.00 0.00 0.00 42 1015.0
20260906201403 31 116 27.4 45.1 0.00 0.00 0.00 40 1015.0
20260906201203 31 122 24.1 35.4 0.00 0.00 0.00 42 1015.0
20260906201004 31 129 20.9 41.8 0.00 0.00 0.00 40 1015.0
20260906200803 31 132 24.1 41.8 0.00 0.00 0.00 40 1014.8
20260906200603 31 125 20.9 41.8 0.00 0.00 0.00 42 1014.8
20260906200403 31 130 22.5 41.8 0.00 0.00 0.00 40 1014.8
20260906200203 31 142 20.9 41.8 0.00 0.00 0.00 39 1014.7
20260906200004 31 142 20.9 40.2 0.00 0.00 0.00 39 1014.6
20260906195804 31 134 20.9 40.2 0.00 0.00 0.00 39 1014.7
20260906195603 31 131 22.5 40.2 0.00 0.00 0.00 38 1014.8
20260906195404 31 139 20.9 38.6 0.00 0.00 0.00 38 1014.8
20260906195203 32 121 17.7 40.2 0.00 0.00 0.00 39 1014.9
20260906195024 32 120 19.3 40.2 0.00 0.00 0.00 38 1014.8
20260906194824 32 125 19.3 40.2 0.00 0.00 0.00 38 1014.8
20260906194625 32 133 24.1 40.2 0.00 0.00 0.00 37 1014.8
20260906194404 32 133 24.1 40.2 0.00 0.00 0.00 36 1014.8
20260906194203 32 127 24.1 35.4 0.00 0.00 0.00 36 1014.8
20260906194003 33 136 24.1 35.4 0.00 0.00 0.00 36 1014.8
20260906193803 33 129 24.1 38.6 0.00 0.00 0.00 35 1014.8
20260906193603 33 124 24.1 38.6 0.00 0.00 0.00 35 1014.7
20260906193403 33 137 22.5 43.5 0.00 0.00 0.00 36 1014.7
20260906193204 33 139 22.5 43.5 0.00 0.00 0.00 36 1014.6
20260906193003 33 134 24.1 43.5 0.00 0.00 0.00 36 1014.7
20260906192803 33 133 22.5 43.5 0.00 0.00 0.00 37 1014.7
20260906192603 33 146 22.5 43.5 0.00 0.00 0.00 36 1014.6
20260906192403 33 128 25.7 40.2 0.00 0.00 0.00 36 1014.7
20260906192204 33 125 25.7 43.5 0.00 0.00 0.00 36 1014.7
20260906192003 33 123 29.0 43.5 0.00 0.00 0.00 36 1014.7
20260906191803 33 133 25.7 43.5 0.00 0.00 0.00 36 1014.8
20260906191603 33 132 22.5 43.5 0.00 0.00 0.00 37 1014.8
20260906191403 33 125 29.0 43.5 0.00 0.00 0.00 36 1014.9
20260906191203 33 125 27.4 43.5 0.00 0.00 0.00 36 1014.9
20260906191003 33 130 24.1 40.2 0.00 0.00 0.00 35 1014.8
20260906190804 33 122 22.5 40.2 0.00 0.00 0.00 36 1014.8
20260906190603 33 122 24.1 40.2 0.00 0.00 0.00 36 1014.8
20260906190403 33 117 24.1 40.2 0.00 0.00 0.00 36 1014.8
20260906190225 33 128 25.7 40.2 0.00 0.00 0.00 37 1014.7
20260906190024 33 126 24.1 40.2 0.00 0.00 0.00 37 1014.8
20260906185825 33 136 29.0 40.2 0.00 0.00 0.00 36 1014.8
20260906185603 33 133 24.1 40.2 0.00 0.00 0.00 36 1014.9
20260906185403 33 124 25.7 40.2 0.00 0.00 0.00 36 1014.9
20260906185203 33 128 24.1 35.4 0.00 0.00 0.00 36 1014.9
20260906185003 33 116 22.5 35.4 0.00 0.00 0.00 36 1015.0
20260906184803 33 126 24.1 35.4 0.00 0.00 0.00 36 1015.0
20260906184603 33 121 22.5 32.2 0.00 0.00 0.00 36 1015.1
20260906184424 33 126 22.5 33.8 0.00 0.00 0.00 36 1015.0
20260906184225 33 113 22.5 33.8 0.00 0.00 0.00 36 1015.1
20260906184025 33 121 20.9 33.8 0.00 0.00 0.00 36 1015.1
20260906183803 33 121 22.5 33.8 0.00 0.00 0.00 37 1015.1
20260906183603 33 120 24.1 33.8 0.00 0.00 0.00 36 1015.1
20260906183404 33 130 20.9 33.8 0.00 0.00 0.00 36 1015.2
20260906183203 33 130 20.9 33.8 0.00 0.00 0.00 36 1015.3
20260906183003 33 123 20.9 32.2 0.00 0.00 0.00 36 1015.2
20260906182803 33 120 22.5 32.2 0.00 0.00 0.00 36 1015.3
20260906182603 33 126 20.9 29.0 0.00 0.00 0.00 36 1015.3
20260906182403 33 117 17.7 29.0 0.00 0.00 0.00 37 1015.3
20260906182203 33 120 20.9 30.6 0.00 0.00 0.00 36 1015.3
20260906182004 33 118 19.3 30.6 0.00 0.00 0.00 37 1015.3
20260906181804 33 116 17.7 30.6 0.00 0.00 0.00 37 1015.4
20260906181604 33 116 19.3 30.6 0.00 0.00 0.00 37 1015.4
20260906181403 33 118 19.3 30.6 0.00 0.00 0.00 37 1015.4
20260906181203 33 125 16.1 30.6 0.00 0.00 0.00 37 1015.4
20260906181004 33 122 19.3 30.6 0.00 0.00 0.00 37 1015.4
20260906180803 33 115 17.7 30.6 0.00 0.00 0.00 37 1015.5
20260906180603 33 123 20.9 29.0 0.00 0.00 0.00 37 1015.5
20260906180404 33 117 19.3 29.0 0.00 0.00 0.00 37 1015.6
20260906180203 33 106 20.9 27.4 0.00 0.00 0.00 37 1015.6
20260906180003 33 118 17.7 27.4 0.00 0.00 0.00 38 1015.5
20260906175803 33 109 17.7 27.4 0.00 0.00 0.00 37 1015.5
20260906175603 33 111 19.3 27.4 0.00 0.00 0.00 37 1015.6
20260906175403 33 116 17.7 29.0 0.00 0.00 0.00 38 1015.6
20260906175204 33 110 17.7 29.0 0.00 0.00 0.00 37 1015.7
20260906175025 33 125 17.7 29.0 0.00 0.00 0.00 37 1015.7
20260906174824 33 124 20.9 29.0 0.00 0.00 0.00 37 1015.8
20260906174624 33 119 17.7 29.0 0.00 0.00 0.00 37 1015.8
20260906174403 32 123 19.3 30.6 0.00 0.00 0.00 38 1015.8
20260906174203 32 111 19.3 30.6 0.00 0.00 0.00 38 1015.8
20260906174003 32 104 16.1 30.6 0.00 0.00 0.00 38 1015.9
20260906173803 32 123 20.9 30.6 0.00 0.00 0.00 38 1015.9
20260906173603 32 118 22.5 30.6 0.00 0.00 0.00 38 1015.9
20260906173403 32 112 19.3 30.6 0.00 0.00 0.00 38 1015.9
20260906173225 32 107 20.9 30.6 0.00 0.00 0.00 38 1015.9
20260906173024 32 114 19.3 30.6 0.00 0.00 0.00 38 1016.0
20260906172825 32 117 20.9 30.6 0.00 0.00 0.00 38 1016.0
20260906172603 32 109 22.5 30.6 0.00 0.00 0.00 38 1016.0
20260906172404 32 105 16.1 29.0 0.00 0.00 0.00 38 1016.0
20260906172203 32 115 19.3 30.6 0.00 0.00 0.00 38 1016.0
20260906172003 32 126 19.3 30.6 0.00 0.00 0.00 38 1016.1
20260906171803 32 129 19.3 30.6 0.00 0.00 0.00 39 1016.0
20260906171603 32 116 19.3 30.6 0.00 0.00 0.00 38 1016.1
20260906171403 32 123 20.9 30.6 0.00 0.00 0.00 38 1016.2
20260906171204 32 129 20.9 30.6 0.00 0.00 0.00 38 1016.2
20260906171004 32 125 19.3 27.4 0.00 0.00 0.00 38 1016.2
20260906170803 32 124 19.3 27.4 0.00 0.00 0.00 38 1016.2
20260906170603 32 121 17.7 29.0 0.00 0.00 0.00 38 1016.3
20260906170403 32 114 17.7 29.0 0.00 0.00 0.00 38 1016.4
20260906170204 32 121 17.7 29.0 0.00 0.00 0.00 39 1016.4
20260906170003 32 123 19.3 29.0 0.00 0.00 0.00 38 1016.4
20260906165803 32 106 20.9 29.0 0.00 0.00 0.00 38 1016.4
20260906165604 32 105 17.7 25.7 0.00 0.00 0.00 38 1016.4
20260906165406 32 92 16.1 25.7 0.00 0.00 0.00 38 1016.5
20260906165206 32 114 16.1 25.7 0.00 0.00 0.00 38 1016.5
20260906165024 32 123 17.7 25.7 0.00 0.00 0.00 38 1016.5
20260906164824 32 117 12.9 22.5 0.00 0.00 0.00 39 1016.5
20260906164625 32 116 16.1 24.1 0.00 0.00 0.00 39 1016.5
20260906164404 32 118 14.5 24.1 0.00 0.00 0.00 39 1016.5
20260906164203 32 125 12.9 24.1 0.00 0.00 0.00 38 1016.5
20260906164003 32 120 16.1 24.1 0.00 0.00 0.00 38 1016.5
20260906163803 32 117 17.7 24.1 0.00 0.00 0.00 39 1016.5
20260906163603 32 114 16.1 24.1 0.00 0.00 0.00 39 1016.6
20260906163403 32 112 12.9 20.9 0.00 0.00 0.00 40 1016.6
20260906163203 32 109 11.3 20.9 0.00 0.00 0.00 42 1016.6
20260906163003 32 108 12.9 20.9 0.00 0.00 0.00 40 1016.7
20260906162803 31 110 14.5 20.9 0.00 0.00 0.00 40 1016.7
20260906162603 31 91 12.9 20.9 0.00 0.00 0.00 40 1016.8
20260906162403 31 90 9.7 20.9 0.00 0.00 0.00 40 1016.7
20260906162206 31 80 11.3 20.9 0.00 0.00 0.00 40 1016.8
20260906162003 31 101 12.9 20.9 0.00 0.00 0.00 42 1016.8
20260906161803 31 89 12.9 20.9 0.00 0.00 0.00 42 1016.8
20260906161603 31 99 12.9 20.9 0.00 0.00 0.00 42 1016.8
20260906161403 31 86 14.5 20.9 0.00 0.00 0.00 43 1016.8
20260906161203 31 105 12.9 20.9 0.00 0.00 0.00 43 1016.8
20260906161003 31 97 12.9 20.9 0.00 0.00 0.00 44 1016.8
20260906160803 30 95 11.3 19.3 0.00 0.00 0.00 44 1016.8
20260906160603 30 103 12.9 19.3 0.00 0.00 0.00 44 1016.8
20260906160403 30 126 12.9 19.3 0.00 0.00 0.00 43 1016.8
20260906160204 30 98 12.9 19.3 0.00 0.00 0.00 45 1016.8
20260906160004 30 101 11.3 20.9 0.00 0.00 0.00 44 1016.8
20260906155804 30 100 12.9 20.9 0.00 0.00 0.00 45 1016.8
20260906155624 30 103 12.9 20.9 0.00 0.00 0.00 45 1016.8
20260906155424 30 102 11.3 20.9 0.00 0.00 0.00 45 1016.8
20260906155224 30 107 12.9 20.9 0.00 0.00 0.00 44 1016.8
20260906155003 30 91 12.9 19.3 0.00 0.00 0.00 45 1016.8
20260906154804 30 111 11.3 16.1 0.00 0.00 0.00 45 1016.8
20260906154603 30 140 6.4 14.5 0.00 0.00 0.00 45 1016.7
20260906154404 30 99 4.8 17.7 0.00 0.00 0.00 46 1016.7
20260906154203 30 141 6.4 19.3 0.00 0.00 0.00 43 1016.8
20260906154004 30 181 6.4 19.3 0.00 0.00 0.00 44 1016.7
20260906153803 30 178 6.4 19.3 0.00 0.00 0.00 44 1016.7
20260906153603 30 156 9.7 19.3 0.00 0.00 0.00 45 1016.8
20260906153404 30 135 11.3 19.3 0.00 0.00 0.00 45 1016.7
20260906153224 29 146 8.0 16.1 0.00 0.00 0.00 46 1016.8
20260906153024 29 120 4.8 16.1 0.00 0.00 0.00 49 1016.8
20260906152824 29 125 6.4 16.1 0.00 0.00 0.00 49 1016.8
20260906152603 29 132 6.4 16.1 0.00 0.00 0.00 48 1016.9
20260906152403 28 137 9.7 16.1 0.00 0.00 0.00 49 1016.9
20260906152203 28 131 9.7 16.1 0.00 0.00 0.00 49 1016.9
20260906152003 28 132 9.7 16.1 0.00 0.00 0.00 51 1016.9
20260906151803 28 128 8.0 16.1 0.00 0.00 0.00 51 1016.9
20260906151603 28 108 8.0 16.1 0.00 0.00 0.00 51 1016.9
20260906151403 28 101 9.7 16.1 0.00 0.00 0.00 51 1016.9
20260906151203 28 121 9.7 19.3 0.00 0.00 0.00 53 1017.0
20260906151004 27 104 8.0 19.3 0.00 0.00 0.00 54 1017.0
20260906150803 27 92 11.3 19.3 0.00 0.00 0.00 54 1017.0
20260906150603 27 103 8.0 19.3 0.00 0.00 0.00 55 1017.0
20260906150404 27 89 12.9 19.3 0.00 0.00 0.00 55 1017.0
20260906150204 27 89 11.3 17.7 0.00 0.00 0.00 55 1017.0
20260906150004 27 81 9.7 14.5 0.00 0.00 0.00 55 1017.1
20260906145804 27 106 4.8 14.5 0.00 0.00 0.00 55 1017.2
20260906145624 27 71 1.6 6.4 0.00 0.00 0.00 55 1017.1
20260906145424 27 79 1.6 6.4 0.00 0.00 0.00 55 1017.2
20260906145224 27 80 3.2 6.4 0.00 0.00 0.00 56 1017.2
20260906145004 27 102 1.6 6.4 0.00 0.00 0.00 56 1017.3
20260906144803 27 88 3.2 6.4 0.00 0.00 0.00 57 1017.3
20260906144603 27 103 3.2 6.4 0.00 0.00 0.00 57 1017.4
20260906144403 26 75 3.2 4.8 0.00 0.00 0.00 56 1017.4
20260906144203 26 153 1.6 4.8 0.00 0.00 0.00 57 1017.4
20260906144004 26 105 3.2 4.8 0.00 0.00 0.00 57 1017.4
20260906143824 26 82 1.6 6.4 0.00 0.00 0.00 58 1017.4
20260906143624 26 84 3.2 9.7 0.00 0.00 0.00 58 1017.5
20260906143424 26 100 3.2 9.7 0.00 0.00 0.00 59 1017.5
20260906143203 26 97 3.2 9.7 0.00 0.00 0.00 58 1017.4
20260906143004 26 101 4.8 9.7 0.00 0.00 0.00 58 1017.4
20260906142803 26 94 4.8 9.7 0.00 0.00 0.00 58 1017.4
20260906142603 25 98 3.2 6.4 0.00 0.00 0.00 59 1017.4
20260906142403 25 71 3.2 6.4 0.00 0.00 0.00 59 1017.4
20260906142203 25 23 1.6 3.2 0.00 0.00 0.00 60 1017.4
20260906142003 25 0 0.0 0.0 0.00 0.00 0.00 61 1017.4
20260906141803 25 0 0.0 0.0 0.00 0.00 0.00 61 1017.4
20260906141603 24 0 0.0 0.0 0.00 0.00 0.00 63 1017.4
20260906141403 24 0 0.0 0.0 0.00 0.00 0.00 64 1017.4
20260906141203 24 0 0.0 0.0 0.00 0.00 0.00 64 1017.4
20260906141003 24 0 0.0 0.0 0.00 0.00 0.00 64 1017.4
20260906140803 23 0 0.0 0.0 0.00 0.00 0.00 64 1017.4
20260906140603 23 0 0.0 0.0 0.00 0.00 0.00 64 1017.3
20260906140403 23 0 0.0 0.0 0.00 0.00 0.00 64 1017.4
20260906140203 23 0 0.0 0.0 0.00 0.00 0.00 64 1017.4
20260906140004 23 0 0.0 0.0 0.00 0.00 0.00 64 1017.4
20260906135804 23 0 0.0 0.0 0.00 0.00 0.00 65 1017.5
20260906135603 23 0 0.0 0.0 0.00 0.00 0.00 64 1017.5
20260906135403 23 0 0.0 0.0 0.00 0.00 0.00 65 1017.5
20260906135204 23 0 0.0 0.0 0.00 0.00 0.00 65 1017.5
20260906135024 23 0 0.0 0.0 0.00 0.00 0.00 66 1017.4
20260906134824 23 0 0.0 0.0 0.00 0.00 0.00 66 1017.5
20260906134624 23 0 0.0 0.0 0.00 0.00 0.00 66 1017.5
20260906134403 23 0 0.0 0.0 0.00 0.00 0.00 66 1017.6
20260906134203 23 0 0.0 0.0 0.00 0.00 0.00 66 1017.6
20260906134003 22 0 0.0 0.0 0.00 0.00 0.00 67 1017.6
20260906133824 22 0 0.0 0.0 0.00 0.00 0.00 67 1017.5
20260906133624 22 0 0.0 0.0 0.00 0.00 0.00 67 1017.6
20260906133424 22 0 0.0 0.0 0.00 0.00 0.00 67 1017.4
20260906133203 22 0 0.0 0.0 0.00 0.00 0.00 68 1017.5
20260906133003 22 0 0.0 0.0 0.00 0.00 0.00 68 1017.5
20260906132803 22 0 0.0 0.0 0.00 0.00 0.00 68 1017.5
20260906132624 21 0 0.0 0.0 0.00 0.00 0.00 68 1017.5
20260906132424 21 0 0.0 0.0 0.00 0.00 0.00 69 1017.4
20260906132224 21 0 0.0 0.0 0.00 0.00 0.00 69 1017.4
20260906132003 21 0 0.0 0.0 0.00 0.00 0.00 69 1017.4
20260906131804 21 0 0.0 0.0 0.00 0.00 0.00 69 1017.4
20260906131603 21 0 0.0 0.0 0.00 0.00 0.00 68 1017.4
20260906131403 21 0 0.0 0.0 0.00 0.00 0.00 69 1017.4
20260906131203 21 0 0.0 0.0 0.00 0.00 0.00 70 1017.4
20260906131004 21 0 0.0 3.2 0.00 0.00 0.00 69 1017.3
20260906130824 21 0 0.0 3.2 0.00 0.00 0.00 69 1017.3
20260906130624 21 0 0.0 3.2 0.00 0.00 0.00 69 1017.3
20260906130424 21 0 0.0 4.8 0.00 0.00 0.00 68 1017.3
20260906130203 21 215 1.6 9.7 0.00 0.00 0.00 68 1017.3
20260906130003 21 209 1.6 9.7 0.00 0.00 0.00 68 1017.3
20260906125803 21 188 1.6 9.7 0.00 0.00 0.00 69 1017.2
20260906125603 21 114 3.2 9.7 0.00 0.00 0.00 69 1017.3
20260906125404 21 91 4.8 9.7 0.00 0.00 0.00 69 1017.2
20260906125203 21 124 3.2 4.8 0.00 0.00 0.00 69 1017.2
20260906125004 20 192 1.6 4.8 0.00 0.00 0.00 70 1017.2
20260906124803 20 218 3.2 4.8 0.00 0.00 0.00 70 1017.1
20260906124603 20 224 3.2 4.8 0.00 0.00 0.00 70 1017.1
20260906124403 20 208 3.2 4.8 0.00 0.00 0.00 70 1017.1
20260906124203 20 196 3.2 6.4 0.00 0.00 0.00 70 1017.1
20260906124003 20 194 3.2 6.4 0.00 0.00 0.00 70 1017.0
20260906123803 20 203 3.2 6.4 0.00 0.00 0.00 70 1016.9
20260906123603 20 184 3.2 6.4 0.00 0.00 0.00 69 1016.9
20260906123403 20 170 1.6 6.4 0.00 0.00 0.00 69 1016.9
20260906123203 20 162 1.6 6.4 0.00 0.00 0.00 69 1016.8
20260906123003 20 217 3.2 6.4 0.00 0.00 0.00 69 1016.8
20260906122803 20 25 3.2 6.4 0.00 0.00 0.00 70 1016.8
20260906122603 20 279 3.2 6.4 0.00 0.00 0.00 70 1016.8
20260906122403 20 252 3.2 4.8 0.00 0.00 0.00 70 1016.8
20260906122203 20 241 3.2 4.8 0.00 0.00 0.00 70 1016.8
20260906122004 20 342 1.6 4.8 0.00 0.00 0.00 70 1016.7
20260906121803 20 314 1.6 4.8 0.00 0.00 0.00 70 1016.8
20260906121603 20 329 1.6 4.8 0.00 0.00 0.00 69 1016.7
20260906121403 20 329 3.2 4.8 0.00 0.00 0.00 69 1016.8
20260906121203 20 277 3.2 6.4 0.00 0.00 0.00 69 1016.8
20260906121003 20 265 1.6 6.4 0.00 0.00 0.00 69 1016.8
20260906120803 20 259 1.6 6.4 0.00 0.00 0.00 69 1016.8
20260906120603 20 234 1.6 6.4 0.00 0.00 0.00 69 1016.8
20260906120403 20 242 4.8 6.4 0.00 0.00 0.00 68 1016.8
20260906120203 21 245 3.2 4.8 0.00 0.00 0.00 68 1016.8
20260906120003 21 238 3.2 4.8 0.00 0.00 0.00 68 1016.8
20260906115803 21 222 1.6 4.8 0.00 0.00 0.00 67 1016.9
20260906115603 21 162 0.0 4.8 0.00 0.00 0.00 67 1016.8
20260906115403 21 175 1.6 4.8 0.00 0.00 0.00 67 1016.8
20260906115203 21 175 3.2 4.8 0.00 0.00 0.00 66 1016.8
20260906115003 21 125 4.8 4.8 0.00 0.00 0.00 66 1016.6
20260906114803 21 136 3.2 4.8 0.00 0.00 0.00 66 1016.6
20260906114603 21 111 1.6 8.0 0.00 0.00 0.00 66 1016.6
20260906114403 21 78 0.0 8.0 0.00 0.00 0.00 66 1016.5
20260906114203 21 66 1.6 8.0 0.00 0.00 0.00 66 1016.5
20260906114003 21 78 1.6 8.0 0.00 0.00 0.00 66 1016.5
20260906113824 21 98 3.2 8.0 0.00 0.00 0.00 66 1016.5
20260906113624 21 153 4.8 8.0 0.00 0.00 0.00 66 1016.5
20260906113424 21 114 1.6 9.7 0.00 0.00 0.00 66 1016.5
20260906113203 21 106 0.0 9.7 0.00 0.00 0.00 66 1016.6
20260906113003 21 110 1.6 9.7 0.00 0.00 0.00 66 1016.6
20260906112803 21 143 4.8 9.7 0.00 0.00 0.00 67 1016.6
20260906112603 21 203 6.4 9.7 0.00 0.00 0.00 66 1016.6
20260906112403 21 92 3.2 8.0 0.00 0.00 0.00 66 1016.6
20260906112203 21 205 4.8 8.0 0.00 0.00 0.00 66 1016.6
20260906112003 21 78 3.2 4.8 0.00 0.00 0.00 66 1016.6
20260906111804 21 247 3.2 4.8 0.00 0.00 0.00 66 1016.7
20260906111603 21 67 0.0 8.0 0.00 0.00 0.00 65 1016.8
20260906111403 22 67 0.0 11.3 0.00 0.00 0.00 65 1016.8
20260906111203 22 67 0.0 11.3 0.00 0.00 0.00 64 1016.8
20260906111003 22 69 3.2 11.3 0.00 0.00 0.00 64 1016.8
20260906110803 22 67 3.2 11.3 0.00 0.00 0.00 63 1016.7
20260906110603 22 107 6.4 14.5 0.00 0.00 0.00 63 1016.8
20260906110403 22 220 4.8 14.5 0.00 0.00 0.00 63 1016.8
20260906110203 22 253 6.4 14.5 0.00 0.00 0.00 64 1016.8
20260906110003 22 310 3.2 14.5 0.00 0.00 0.00 64 1016.8
20260906105803 22 81 6.4 14.5 0.00 0.00 0.00 65 1016.8
20260906105603 22 198 1.6 6.4 0.00 0.00 0.00 64 1016.8
20260906105403 22 0 0.0 3.2 0.00 0.00 0.00 64 1016.8
20260906105203 22 0 0.0 3.2 0.00 0.00 0.00 63 1016.8
20260906105003 22 113 0.0 3.2 0.00 0.00 0.00 63 1016.7
20260906104803 22 113 0.0 11.3 0.00 0.00 0.00 63 1016.7
20260906104603 22 112 1.6 16.1 0.00 0.00 0.00 63 1016.6
20260906104403 22 107 1.6 16.1 0.00 0.00 0.00 63 1016.7
20260906104203 22 67 1.6 16.1 0.00 0.00 0.00 64 1016.7
20260906104003 22 79 4.8 16.1 0.00 0.00 0.00 64 1016.8
20260906103803 22 90 9.7 16.1 0.00 0.00 0.00 64 1016.7
20260906103603 22 106 4.8 9.7 0.00 0.00 0.00 64 1016.8
20260906103403 22 74 4.8 9.7 0.00 0.00 0.00 64 1016.8
20260906103224 22 52 6.4 9.7 0.00 0.00 0.00 65 1016.8
20260906103025 22 344 4.8 9.7 0.00 0.00 0.00 65 1016.7
20260906102824 22 356 6.4 9.7 0.00 0.00 0.00 65 1016.7
20260906102603 22 345 6.4 9.7 0.00 0.00 0.00 65 1016.8
20260906102403 22 302 3.2 9.7 0.00 0.00 0.00 64 1016.8
20260906102203 22 311 3.2 9.7 0.00 0.00 0.00 64 1016.8
20260906102003 22 320 3.2 9.7 0.00 0.00 0.00 64 1016.8
20260906101803 22 318 6.4 9.7 0.00 0.00 0.00 63 1016.9
20260906101603 22 241 4.8 9.7 0.00 0.00 0.00 63 1016.9
20260906101403 22 9 3.2 8.0 0.00 0.00 0.00 63 1016.9
20260906101203 22 206 3.2 6.4 0.00 0.00 0.00 61 1016.9
20260906101003 22 54 4.8 8.0 0.00 0.00 0.00 61 1016.9
20260906100803 22 301 0.0 8.0 0.00 0.00 0.00 60 1016.9
20260906100603 22 303 0.0 8.0 0.00 0.00 0.00 60 1016.9
20260906100403 23 107 1.6 8.0 0.00 0.00 0.00 60 1016.9
20260906100203 23 49 3.2 9.7 0.00 0.00 0.00 60 1016.9
20260906100003 23 337 1.6 16.1 0.00 0.00 0.00 59 1016.9
20260906095803 23 254 1.6 17.7 0.00 0.00 0.00 59 1016.9
20260906095603 23 74 3.2 20.9 0.00 0.00 0.00 58 1016.8
20260906095403 24 95 4.8 32.2 0.00 0.00 0.00 57 1016.8
20260906095203 24 68 8.0 32.2 0.00 0.00 0.00 56 1016.8
20260906095003 25 74 11.3 32.2 0.00 0.00 0.00 55 1016.6
20260906094803 25 90 11.3 32.2 0.00 0.00 0.00 55 1016.5
20260906094603 25 134 11.3 32.2 0.00 0.00 0.00 54 1016.3
20260906094403 25 209 11.3 35.4 0.00 0.00 0.00 54 1016.3
20260906094203 25 233 16.1 35.4 0.00 0.00 0.00 54 1016.2
20260906094003 25 237 12.9 35.4 0.00 0.00 0.00 54 1016.1
20260906093803 25 230 17.7 35.4 0.00 0.00 0.00 55 1016.0
20260906093603 25 239 16.1 35.4 0.00 0.00 0.00 55 1016.1
20260906093403 25 225 16.1 29.0 0.00 0.00 0.00 55 1016.1
20260906093203 25 222 14.5 29.0 0.00 0.00 0.00 55 1016.2
20260906093003 25 229 12.9 30.6 0.00 0.00 0.00 56 1016.2
20260906092803 25 222 12.9 30.6 0.00 0.00 0.00 56 1016.2
20260906092603 24 214 12.9 30.6 0.00 0.00 0.00 56 1016.2
20260906092403 24 243 9.7 30.6 0.00 0.00 0.00 57 1016.3
20260906092203 24 210 9.7 30.6 0.00 0.00 0.00 57 1016.3
20260906092003 24 93 8.0 20.9 0.00 0.00 0.00 57 1016.3
20260906091803 24 36 3.2 16.1 0.00 0.00 0.00 57 1016.3
20260906091603 25 40 3.2 16.1 0.00 0.00 0.00 57 1016.3
20260906091403 25 4 1.6 29.0 0.00 0.00 0.00 56 1016.3
20260906091203 25 33 6.4 29.0 0.00 0.00 0.00 56 1016.4
20260906091004 25 81 9.7 29.0 0.00 0.00 0.00 56 1016.3
20260906090803 25 170 6.4 29.0 0.00 0.00 0.00 55 1016.3
20260906090603 25 256 8.0 35.4 0.00 0.00 0.00 55 1016.2
20260906090403 25 243 12.9 38.6 0.00 0.00 0.00 55 1016.0
20260906090203 25 253 14.5 38.6 0.00 0.00 0.00 56 1015.9
20260906090003 25 222 12.9 38.6 0.00 0.00 0.00 56 1015.9
20260906085804 24 234 17.7 38.6 0.00 0.00 0.00 57 1015.8
20260906085603 24 228 16.1 38.6 0.00 0.00 0.00 59 1015.8
20260906085403 23 241 11.3 25.7 0.00 0.00 0.00 60 1015.8
20260906085203 23 227 14.5 25.7 0.00 0.00 0.00 63 1015.8
20260906085003 22 235 11.3 25.7 0.00 0.00 0.00 65 1015.9
20260906084803 22 228 12.9 25.7 0.00 0.00 0.00 67 1015.9
20260906084603 21 238 3.2 19.3 0.00 0.00 0.00 69 1016.0
20260906084403 21 251 8.0 19.3 0.00 0.00 0.00 68 1016.2
20260906084203 21 299 4.8 8.0 0.00 0.00 0.00 68 1016.1
20260906084003 21 238 3.2 8.0 0.00 0.00 0.00 68 1016.2
20260906083803 21 250 1.6 8.0 0.00 0.00 0.00 68 1016.3
20260906083603 21 242 3.2 8.0 0.00 0.00 0.00 68 1016.5
20260906083403 21 242 3.2 8.0 0.00 0.00 0.00 67 1016.5
20260906083203 22 0 0.0 0.0 0.00 0.00 0.00 66 1016.5
20260906083003 22 0 0.0 0.0 0.00 0.00 0.00 66 1016.6
20260906082803 22 0 0.0 0.0 0.00 0.00 0.00 65 1016.6
20260906082603 22 0 0.0 6.4 0.00 0.00 0.00 65 1016.6
20260906082403 22 0 0.0 6.4 0.00 0.00 0.00 65 1016.6
20260906082203 22 0 0.0 6.4 0.00 0.00 0.00 65 1016.6
20260906082003 22 0 0.0 11.3 0.00 0.00 0.00 65 1016.6
20260906081803 22 72 1.6 11.3 0.00 0.00 0.00 65 1016.6
20260906081603 22 85 3.2 11.3 0.00 0.00 0.00 65 1016.6
20260906081403 22 190 1.6 11.3 0.00 0.00 0.00 66 1016.6
20260906081203 22 250 3.2 11.3 0.00 0.00 0.00 67 1016.5
20260906081003 22 247 4.8 8.0 0.00 0.00 0.00 67 1016.6
20260906080824 21 247 4.8 6.4 0.00 0.00 0.00 68 1016.8
20260906080624 21 209 3.2 6.4 0.00 0.00 0.00 68 1016.8
20260906080424 21 207 3.2 4.8 0.00 0.00 0.00 69 1016.8
20260906080203 21 204 3.2 8.0 0.00 0.00 0.00 69 1016.8
20260906080003 21 199 3.2 8.0 0.00 0.00 0.00 69 1016.8
20260906075803 21 208 3.2 8.0 0.00 0.00 0.00 68 1016.7
20260906075603 22 231 3.2 8.0 0.00 0.00 0.00 68 1016.7
20260906075403 22 246 4.8 8.0 0.00 0.00 0.00 68 1016.7
20260906075203 22 223 4.8 8.0 0.00 0.00 0.00 67 1016.7
20260906075024 22 170 1.6 8.0 0.00 0.00 0.00 67 1016.8
20260906074824 22 117 1.6 8.0 0.00 0.00 0.00 66 1016.8
20260906074624 22 117 0.0 8.0 0.00 0.00 0.00 66 1016.8
20260906074403 22 117 0.0 8.0 0.00 0.00 0.00 65 1016.8
20260906074203 22 122 0.0 8.0 0.00 0.00 0.00 65 1016.8
20260906074003 23 128 1.6 8.0 0.00 0.00 0.00 64 1016.7
20260906073824 23 128 1.6 19.3 0.00 0.00 0.00 64 1016.8
20260906073624 23 129 3.2 19.3 0.00 0.00 0.00 63 1016.8
20260906073424 23 0 0.0 19.3 0.00 0.00 0.00 61 1016.8
20260906073203 23 102 1.6 19.3 0.00 0.00 0.00 61 1016.8
20260906073003 24 108 3.2 19.3 0.00 0.00 0.00 59 1016.8
20260906072803 24 191 0.0 19.3 0.00 0.00 0.00 58 1016.7
20260906072603 25 153 1.6 25.7 0.00 0.00 0.00 57 1016.6
20260906072403 25 113 1.6 25.7 0.00 0.00 0.00 56 1016.6
20260906072203 26 96 4.8 27.4 0.00 0.00 0.00 55 1016.6
20260906072003 26 111 11.3 27.4 0.00 0.00 0.00 55 1016.7
20260906071804 26 236 14.5 27.4 0.00 0.00 0.00 54 1016.3
20260906071603 26 238 14.5 29.0 0.00 0.00 0.00 55 1016.3
20260906071403 26 247 19.3 29.0 0.00 0.00 0.00 56 1016.3
20260906071203 25 240 16.1 29.0 0.00 0.00 0.00 57 1016.3
20260906071003 25 249 16.1 29.0 0.00 0.00 0.00 58 1016.3
20260906070824 25 248 19.3 29.0 0.00 0.00 0.00 60 1016.4
20260906070624 24 249 17.7 25.7 0.00 0.00 0.00 63 1016.4
20260906070424 23 236 12.9 24.1 0.00 0.00 0.00 65 1016.5
20260906070224 22 252 9.7 20.9 0.00 0.00 0.00 66 1016.5
20260906070024 22 280 4.8 11.3 0.00 0.00 0.00 66 1016.6
20260906065824 22 272 4.8 9.7 0.00 0.00 0.00 64 1016.6
20260906065603 22 282 3.2 9.7 0.00 0.00 0.00 63 1016.6
20260906065403 22 257 3.2 16.1 0.00 0.00 0.00 63 1016.7
20260906065203 23 228 3.2 16.1 0.00 0.00 0.00 61 1016.7
20260906065003 23 158 1.6 16.1 0.00 0.00 0.00 60 1016.7
20260906064803 23 173 4.8 16.1 0.00 0.00 0.00 59 1016.6
20260906064603 23 198 3.2 16.1 0.00 0.00 0.00 57 1016.6
20260906064424 24 169 1.6 16.1 0.00 0.00 0.00 57 1016.6
20260906064225 25 159 3.2 16.1 0.00 0.00 0.00 56 1016.5
20260906064026 25 136 4.8 20.9 0.00 0.00 0.00 55 1016.5
20260906063803 25 112 4.8 20.9 0.00 0.00 0.00 55 1016.3
20260906063602 25 176 8.0 20.9 0.00 0.00 0.00 57 1016.3
20260906063403 25 215 8.0 20.9 0.00 0.00 0.00 58 1016.3
20260906063203 25 215 8.0 20.9 0.00 0.00 0.00 59 1016.2
20260906063003 25 199 6.4 14.5 0.00 0.00 0.00 60 1016.3
20260906062803 25 245 3.2 14.5 0.00 0.00 0.00 61 1016.2
20260906062603 24 232 6.4 16.1 0.00 0.00 0.00 63 1016.3
20260906062403 24 247 4.8 16.1 0.00 0.00 0.00 64 1016.3
20260906062203 23 245 8.0 16.1 0.00 0.00 0.00 66 1016.5
20260906062003 23 247 8.0 16.1 0.00 0.00 0.00 68 1016.5
20260906061803 22 245 6.4 16.1 0.00 0.00 0.00 70 1016.5
20260906061603 21 237 6.4 16.1 0.00 0.00 0.00 71 1016.6
20260906061403 21 233 6.4 16.1 0.00 0.00 0.00 73 1016.7
20260906061203 21 0 0.0 4.8 0.00 0.00 0.00 68 1016.7
20260906061003 21 278 0.0 4.8 0.00 0.00 0.00 65 1016.7
20260906060824 21 311 0.0 4.8 0.00 0.00 0.00 65 1016.8
20260906060624 21 334 1.6 4.8 0.00 0.00 0.00 65 1016.9
20260906060424 21 32 1.6 3.2 0.00 0.00 0.00 65 1016.9
20260906060203 21 93 1.6 4.8 0.00 0.00 0.00 64 1016.9
20260906060003 21 93 0.0 4.8 0.00 0.00 0.00 65 1016.9
20260906055803 21 93 0.0 4.8 0.00 0.00 0.00 64 1016.9
20260906055624 21 97 3.2 4.8 0.00 0.00 0.00 64 1016.9
20260906055424 21 169 3.2 4.8 0.00 0.00 0.00 64 1016.9
20260906055224 21 199 1.6 3.2 0.00 0.00 0.00 64 1016.9
20260906055003 21 213 1.6 3.2 0.00 0.00 0.00 64 1017.0
20260906054803 21 0 0.0 0.0 0.00 0.00 0.00 64 1017.1
20260906054603 21 0 0.0 1.6 0.00 0.00 0.00 64 1017.1
20260906054403 21 0 0.0 1.6 0.00 0.00 0.00 64 1017.1
20260906054203 21 0 0.0 1.6 0.00 0.00 0.00 64 1017.0
20260906054003 21 0 0.0 4.8 0.00 0.00 0.00 63 1017.2
20260906053803 21 280 0.0 4.8 0.00 0.00 0.00 64 1017.2
20260906053602 21 280 1.6 4.8 0.00 0.00 0.00 64 1017.1
20260906053403 21 280 1.6 6.4 0.00 0.00 0.00 64 1017.1
20260906053224 21 280 1.6 6.4 0.00 0.00 0.00 64 1017.2
20260906053024 21 281 3.2 6.4 0.00 0.00 0.00 64 1017.1
20260906052824 21 268 3.2 6.4 0.00 0.00 0.00 64 1017.2
20260906052602 21 286 4.8 6.4 0.00 0.00 0.00 64 1017.3
20260906052403 21 286 4.8 6.4 0.00 0.00 0.00 64 1017.4
20260906052203 21 272 1.6 4.8 0.00 0.00 0.00 64 1017.5
20260906052003 21 272 3.2 4.8 0.00 0.00 0.00 64 1017.6
20260906051803 21 258 1.6 3.2 0.00 0.00 0.00 63 1017.6
20260906051603 21 257 1.6 3.2 0.00 0.00 0.00 63 1017.7
20260906051403 21 257 0.0 3.2 0.00 0.00 0.00 63 1017.6
20260906051203 21 257 1.6 4.8 0.00 0.00 0.00 63 1017.5
20260906051003 21 215 1.6 6.4 0.00 0.00 0.00 63 1017.5
20260906050803 21 203 1.6 6.4 0.00 0.00 0.00 63 1017.5
20260906050603 21 203 1.6 6.4 0.00 0.00 0.00 63 1017.6
20260906050403 21 203 3.2 6.4 0.00 0.00 0.00 63 1017.5
20260906050203 21 184 3.2 6.4 0.00 0.00 0.00 63 1017.5
20260906050003 21 201 3.2 6.4 0.00 0.00 0.00 63 1017.4
20260906045803 21 0 0.0 6.4 0.00 0.00 0.00 63 1017.4
20260906045602 21 0 0.0 6.4 0.00 0.00 0.00 61 1017.4
20260906045403 22 144 0.0 6.4 0.00 0.00 0.00 61 1017.4
20260906045203 22 93 3.2 6.4 0.00 0.00 0.00 61 1017.4
20260906045024 22 83 4.8 6.4 0.00 0.00 0.00 60 1017.4
20260906044824 22 213 1.6 6.4 0.00 0.00 0.00 60 1017.2
20260906044624 22 213 1.6 9.7 0.00 0.00 0.00 60 1017.2
20260906044403 22 207 3.2 9.7 0.00 0.00 0.00 60 1017.1
20260906044203 22 86 3.2 9.7 0.00 0.00 0.00 60 1017.1
20260906044003 22 92 4.8 9.7 0.00 0.00 0.00 60 1017.0
20260906043803 22 111 4.8 9.7 0.00 0.00 0.00 60 1016.9
20260906043603 22 203 1.6 9.7 0.00 0.00 0.00 59 1016.9
20260906043403 22 206 1.6 9.7 0.00 0.00 0.00 60 1016.9
20260906043224 22 0 0.0 0.0 0.00 0.00 0.00 59 1016.9
20260906043024 22 0 0.0 0.0 0.00 0.00 0.00 59 1016.9
20260906042824 22 0 0.0 0.0 0.00 0.00 0.00 59 1016.9
20260906042603 22 0 0.0 0.0 0.00 0.00 0.00 59 1017.0
20260906042403 22 0 0.0 0.0 0.00 0.00 0.00 59 1017.1
20260906042203 23 0 0.0 0.0 0.00 0.00 0.00 59 1017.1
20260906042024 23 0 0.0 0.0 0.00 0.00 0.00 59 1017.2
20260906041824 23 0 0.0 0.0 0.00 0.00 0.00 59 1017.2
20260906041623 23 0 0.0 0.0 0.00 0.00 0.00 58 1017.1
20260906041403 23 0 0.0 0.0 0.00 0.00 0.00 58 1017.1
20260906041203 23 0 0.0 0.0 0.00 0.00 0.00 58 1017.1
20260906041003 23 0 0.0 0.0 0.00 0.00 0.00 57 1017.1
20260906040803 23 0 0.0 0.0 0.00 0.00 0.00 57 1017.1
20260906040602 23 0 0.0 0.0 0.00 0.00 0.00 56 1017.1
20260906040403 23 0 0.0 0.0 0.00 0.00 0.00 56 1017.1
20260906040203 23 0 0.0 0.0 0.00 0.00 0.00 56 1017.1
20260906040003 23 0 0.0 0.0 0.00 0.00 0.00 56 1017.2
20260906035803 23 0 0.0 0.0 0.00 0.00 0.00 56 1017.2
20260906035602 23 0 0.0 0.0 0.00 0.00 0.00 55 1017.2
20260906035403 24 0 0.0 0.0 0.00 0.00 0.00 55 1017.2
20260906035203 24 0 0.0 0.0 0.00 0.00 0.00 55 1017.3
20260906035024 24 0 0.0 0.0 0.00 0.00 0.00 54 1017.3
20260906034824 24 0 0.0 0.0 0.00 0.00 0.00 54 1017.4
20260906034624 24 0 0.0 0.0 0.00 0.00 0.00 54 1017.4
20260906034403 25 0 0.0 3.2 0.00 0.00 0.00 53 1017.4
20260906034203 25 0 0.0 4.8 0.00 0.00 0.00 52 1017.4
20260906034003 25 0 0.0 4.8 0.00 0.00 0.00 52 1017.4
20260906033803 25 0 0.0 4.8 0.00 0.00 0.00 51 1017.4
20260906033602 25 306 1.6 4.8 0.00 0.00 0.00 51 1017.4
20260906033403 25 306 3.2 4.8 0.00 0.00 0.00 50 1017.4
20260906033203 26 301 3.2 4.8 0.00 0.00 0.00 50 1017.5
20260906033004 26 308 3.2 4.8 0.00 0.00 0.00 49 1017.4
20260906032803 26 322 3.2 4.8 0.00 0.00 0.00 49 1017.4
20260906032623 26 349 3.2 4.8 0.00 0.00 0.00 48 1017.4
20260906032424 26 358 3.2 6.4 0.00 0.00 0.00 48 1017.4
20260906032224 27 17 1.6 6.4 0.00 0.00 0.00 47 1017.4
20260906032003 27 16 3.2 6.4 0.00 0.00 0.00 47 1017.3
20260906031803 27 342 3.2 9.7 0.00 0.00 0.00 47 1017.3
20260906031603 27 332 3.2 9.7 0.00 0.00 0.00 46 1017.3
20260906031403 27 22 1.6 11.3 0.00 0.00 0.00 47 1017.2
20260906031203 27 161 1.6 11.3 0.00 0.00 0.00 47 1017.2
20260906031003 27 145 3.2 11.3 0.00 0.00 0.00 47 1017.2
20260906030803 27 201 4.8 11.3 0.00 0.00 0.00 47 1017.1
20260906030602 27 213 6.4 16.1 0.00 0.00 0.00 47 1017.1
20260906030403 27 225 4.8 16.1 0.00 0.00 0.00 47 1017.0
20260906030225 27 216 6.4 16.1 0.00 0.00 0.00 47 1017.0
20260906030024 27 226 4.8 16.1 0.00 0.00 0.00 47 1017.0
20260906025824 27 222 6.4 17.7 0.00 0.00 0.00 47 1016.9
20260906025603 27 225 6.4 17.7 0.00 0.00 0.00 47 1016.9
20260906025403 27 216 6.4 17.7 0.00 0.00 0.00 47 1016.9
20260906025203 27 215 6.4 17.7 0.00 0.00 0.00 47 1016.9
20260906025003 27 204 8.0 17.7 0.00 0.00 0.00 47 1016.9
20260906024803 27 199 8.0 17.7 0.00 0.00 0.00 47 1016.8
20260906024603 27 206 6.4 17.7 0.00 0.00 0.00 47 1016.8
20260906024403 27 215 8.0 17.7 0.00 0.00 0.00 47 1016.7
20260906024203 27 225 9.7 17.7 0.00 0.00 0.00 47 1016.7
20260906024003 27 212 9.7 16.1 0.00 0.00 0.00 47 1016.6
20260906023803 27 224 8.0 14.5 0.00 0.00 0.00 46 1016.6
20260906023603 27 219 8.0 14.5 0.00 0.00 0.00 46 1016.5
20260906023403 27 205 6.4 16.1 0.00 0.00 0.00 45 1016.5
20260906023203 27 190 4.8 16.1 0.00 0.00 0.00 45 1016.5
20260906023003 27 201 4.8 16.1 0.00 0.00 0.00 45 1016.5
20260906022803 27 209 6.4 16.1 0.00 0.00 0.00 45 1016.5
20260906022602 27 183 6.4 16.1 0.00 0.00 0.00 45 1016.5
20260906022403 27 226 6.4 16.1 0.00 0.00 0.00 45 1016.4
20260906022203 27 232 8.0 16.1 0.00 0.00 0.00 45 1016.4
20260906022003 27 225 4.8 9.7 0.00 0.00 0.00 45 1016.4
20260906021803 27 212 4.8 16.1 0.00 0.00 0.00 45 1016.4
20260906021603 27 205 3.2 16.1 0.00 0.00 0.00 45 1016.4
20260906021403 27 102 1.6 16.1 0.00 0.00 0.00 45 1016.4
20260906021204 27 148 1.6 16.1 0.00 0.00 0.00 45 1016.4
20260906021003 27 239 6.4 16.1 0.00 0.00 0.00 45 1016.4
20260906020824 27 229 6.4 16.1 0.00 0.00 0.00 46 1016.3
20260906020624 27 226 6.4 14.5 0.00 0.00 0.00 46 1016.3
20260906020424 27 223 4.8 14.5 0.00 0.00 0.00 46 1016.3
20260906020203 27 232 4.8 16.1 0.00 0.00 0.00 45 1016.2
20260906020003 27 231 6.4 19.3 0.00 0.00 0.00 45 1016.3
20260906015803 27 231 8.0 19.3 0.00 0.00 0.00 45 1016.3
20260906015603 27 228 6.4 19.3 0.00 0.00 0.00 45 1016.3
20260906015403 27 236 9.7 19.3 0.00 0.00 0.00 45 1016.3
20260906015203 27 224 8.0 19.3 0.00 0.00 0.00 45 1016.3
20260906015003 27 213 6.4 16.1 0.00 0.00 0.00 45 1016.3
20260906014803 27 220 4.8 16.1 0.00 0.00 0.00 44 1016.3
20260906014603 27 217 6.4 16.1 0.00 0.00 0.00 44 1016.3
20260906014403 27 200 6.4 16.1 0.00 0.00 0.00 44 1016.3
20260906014203 27 226 8.0 16.1 0.00 0.00 0.00 44 1016.3
20260906014003 28 225 6.4 11.3 0.00 0.00 0.00 43 1016.3
20260906013802 28 215 3.2 14.5 0.00 0.00 0.00 43 1016.4
20260906013603 28 186 4.8 14.5 0.00 0.00 0.00 43 1016.3
20260906013403 28 194 4.8 16.1 0.00 0.00 0.00 42 1016.4
20260906013224 28 195 4.8 16.1 0.00 0.00 0.00 42 1016.3
20260906013024 28 209 8.0 16.1 0.00 0.00 0.00 42 1016.3
20260906012824 28 205 6.4 16.1 0.00 0.00 0.00 42 1016.3
20260906012603 28 186 4.8 16.1 0.00 0.00 0.00 40 1016.4
20260906012403 28 209 4.8 14.5 0.00 0.00 0.00 42 1016.4
20260906012203 28 196 6.4 14.5 0.00 0.00 0.00 40 1016.4
20260906012024 28 206 3.2 14.5 0.00 0.00 0.00 40 1016.4
20260906011824 28 202 3.2 14.5 0.00 0.00 0.00 40 1016.5
20260906011624 28 186 6.4 14.5 0.00 0.00 0.00 40 1016.4
20260906011403 28 218 4.8 11.3 0.00 0.00 0.00 39 1016.3
20260906011203 28 223 4.8 11.3 0.00 0.00 0.00 39 1016.3
20260906011003 28 203 3.2 11.3 0.00 0.00 0.00 39 1016.5
20260906010803 28 189 4.8 11.3 0.00 0.00 0.00 39 1016.5
20260906010603 28 186 3.2 14.5 0.00 0.00 0.00 38 1016.5
20260906010403 28 203 3.2 14.5 0.00 0.00 0.00 38 1016.6
20260906010224 28 190 3.2 17.7 0.00 0.00 0.00 38 1016.6
20260906010024 28 173 4.8 17.7 0.00 0.00 0.00 38 1016.7
20260906005824 28 177 4.8 17.7 0.00 0.00 0.00 38 1016.7
20260906005602 28 179 3.2 17.7 0.00 0.00 0.00 38 1016.8
20260906005402 28 178 6.4 17.7 0.00 0.00 0.00 38 1016.8
20260906005203 28 164 4.8 14.5 0.00 0.00 0.00 38 1016.9
20260906005003 28 177 3.2 11.3 0.00 0.00 0.00 38 1016.9
20260906004803 29 164 3.2 11.3 0.00 0.00 0.00 37 1016.8
20260906004603 29 183 3.2 11.3 0.00 0.00 0.00 37 1016.8
20260906004403 29 162 3.2 11.3 0.00 0.00 0.00 38 1016.8
20260906004203 29 151 4.8 14.5 0.00 0.00 0.00 37 1016.9
20260906004003 29 149 6.4 14.5 0.00 0.00 0.00 37 1016.9
20260906003806 29 153 4.8 16.1 0.00 0.00 0.00 37 1016.8
20260906003602 29 156 3.2 16.1 0.00 0.00 0.00 37 1016.9
20260906003403 29 161 6.4 16.1 0.00 0.00 0.00 37 1017.0
20260906003203 29 157 6.4 16.1 0.00 0.00 0.00 36 1017.0
20260906003002 29 157 6.4 16.1 0.00 0.00 0.00 37 1017.0
20260906002803 30 157 6.4 14.5 0.00 0.00 0.00 36 1016.9
20260906002603 30 149 4.8 14.5 0.00 0.00 0.00 36 1016.9
20260906002403 30 152 4.8 11.3 0.00 0.00 0.00 37 1016.8
20260906002203 30 166 4.8 11.3 0.00 0.00 0.00 37 1016.8
20260906002002 30 161 4.8 11.3 0.00 0.00 0.00 37 1016.8
20260906001806 30 154 3.2 6.4 0.00 0.00 0.00 37 1016.8
20260906001602 30 169 3.2 6.4 0.00 0.00 0.00 38 1016.8
20260906001403 30 161 3.2 6.4 0.00 0.00 0.00 37 1016.8
20260906001203 30 179 1.6 6.4 0.00 0.00 0.00 36 1016.7
20260906001003 30 183 3.2 9.7 0.00 0.00 0.00 36 1016.7
20260906000802 30 184 3.2 9.7 0.00 0.00 0.00 36 1016.7
20260906000603 30 193 3.2 9.7 0.00 0.00 0.00 36 1016.6
20260906000403 30 190 4.8 9.7 0.00 0.00 0.00 36 1016.6
20260906000204 30 171 3.2 9.7 0.00 0.00 0.00 36 1016.6
20260906000003 30 176 4.8 9.7 0.00 0.00 0.00 35 1016.5
20260905235803 30 168 3.2 9.7 0.00 0.00 0.00 36 1016.4
20260905235602 30 150 3.2 9.7 0.00 0.00 0.00 36 1016.5
20260905235403 30 171 4.8 8.0 0.00 0.00 0.00 36 1016.6
20260905235203 30 175 4.8 9.7 0.00 0.00 0.00 36 1016.6
20260905235004 30 186 3.2 9.7 0.00 0.00 0.00 37 1016.5
20260905234803 30 174 3.2 9.7 0.00 0.00 0.00 37 1016.5
20260905234603 30 172 3.2 9.7 0.00 0.00 0.00 37 1016.4
20260905234406 30 173 3.2 9.7 0.00 0.00 0.00 36 1016.4
20260905234202 30 157 4.8 8.0 0.00 0.00 0.00 36 1016.4
20260905234003 30 168 3.2 8.0 0.00 0.00 0.00 36 1016.4
20260905233823 30 162 4.8 8.0 0.00 0.00 0.00 37 1016.4
20260905233623 30 174 3.2 8.0 0.00 0.00 0.00 36 1016.3
20260905233423 30 170 3.2 6.4 0.00 0.00 0.00 37 1016.3
20260905233203 30 167 1.6 6.4 0.00 0.00 0.00 37 1016.2
20260905233003 30 168 3.2 6.4 0.00 0.00 0.00 36 1016.2
20260905232803 30 168 1.6 8.0 0.00 0.00 0.00 38 1016.2
20260905232602 30 168 1.6 14.5 0.00 0.00 0.00 38 1016.1
20260905232402 30 162 1.6 14.5 0.00 0.00 0.00 38 1016.1
20260905232203 30 138 4.8 14.5 0.00 0.00 0.00 37 1016.1
20260905232023 30 134 4.8 14.5 0.00 0.00 0.00 37 1016.1
20260905231823 30 145 8.0 14.5 0.00 0.00 0.00 36 1016.1
20260905231623 30 136 4.8 11.3 0.00 0.00 0.00 38 1016.0
20260905231402 30 161 3.2 11.3 0.00 0.00 0.00 36 1016.0
20260905231202 30 151 1.6 14.5 0.00 0.00 0.00 37 1016.0
20260905231003 30 149 4.8 14.5 0.00 0.00 0.00 36 1016.0
20260905230803 30 148 3.2 14.5 0.00 0.00 0.00 37 1016.0
20260905230603 31 143 8.0 14.5 0.00 0.00 0.00 36 1016.0
20260905230402 31 141 6.4 14.5 0.00 0.00 0.00 37 1016.0
20260905230203 31 141 6.4 14.5 0.00 0.00 0.00 36 1015.9
20260905230002 31 145 4.8 17.7 0.00 0.00 0.00 35 1015.9
20260905225803 31 158 6.4 19.3 0.00 0.00 0.00 35 1015.9
20260905225602 31 151 6.4 19.3 0.00 0.00 0.00 36 1015.9
20260905225403 31 151 8.0 19.3 0.00 0.00 0.00 35 1015.9
20260905225203 31 141 11.3 19.3 0.00 0.00 0.00 37 1016.0
20260905225004 31 136 12.9 19.3 0.00 0.00 0.00 36 1016.0
20260905224803 31 133 12.9 19.3 0.00 0.00 0.00 36 1016.0
20260905224602 31 127 11.3 19.3 0.00 0.00 0.00 36 1016.0
20260905224402 31 128 12.9 22.5 0.00 0.00 0.00 36 1016.0
20260905224202 31 122 12.9 22.5 0.00 0.00 0.00 36 1016.0
20260905224003 31 134 11.3 25.7 0.00 0.00 0.00 36 1015.9
20260905223803 31 140 11.3 25.7 0.00 0.00 0.00 36 1015.9
20260905223404 31 129 12.9 20.9 0.00 0.00 0.00 36 1015.8
20260905223204 31 133 12.9 20.9 0.00 0.00 0.00 36 1015.8
20260905223004 31 139 11.3 24.1 0.00 0.00 0.00 37 1015.7
20260905222804 31 138 12.9 24.1 0.00 0.00 0.00 36 1015.7
20260905222603 31 144 16.1 24.1 0.00 0.00 0.00 35 1015.7
20260905222403 31 137 12.9 24.1 0.00 0.00 0.00 35 1015.7
20260905222204 31 128 16.1 24.1 0.00 0.00 0.00 35 1015.7
20260905222004 31 126 11.3 22.5 0.00 0.00 0.00 35 1015.8
20260905221804 32 126 11.3 22.5 0.00 0.00 0.00 36 1015.7
20260905221604 32 134 14.5 22.5 0.00 0.00 0.00 34 1015.8
20260905221404 32 129 14.5 20.9 0.00 0.00 0.00 34 1015.7
20260905221204 32 132 12.9 19.3 0.00 0.00 0.00 35 1015.7
20260905221004 32 120 12.9 17.7 0.00 0.00 0.00 34 1015.7
20260905220825 32 116 9.7 17.7 0.00 0.00 0.00 35 1015.7
20260905220625 32 126 9.7 17.7 0.00 0.00 0.00 34 1015.7
20260905220425 32 124 9.7 17.7 0.00 0.00 0.00 35 1015.7
20260905220204 32 116 8.0 17.7 0.00 0.00 0.00 35 1015.7
20260905220004 32 116 9.7 17.7 0.00 0.00 0.00 34 1015.7
20260905215804 32 107 9.7 16.1 0.00 0.00 0.00 34 1015.7
20260905215604 32 102 9.7 16.1 0.00 0.00 0.00 34 1015.7
20260905215404 32 97 8.0 14.5 0.00 0.00 0.00 33 1015.7
20260905215204 32 93 6.4 14.5 0.00 0.00 0.00 32 1015.7
20260905215025 32 88 6.4 14.5 0.00 0.00 0.00 33 1015.7
20260905214824 33 103 6.4 14.5 0.00 0.00 0.00 32 1015.7
20260905214625 33 110 6.4 14.5 0.00 0.00 0.00 31 1015.7
20260905214404 33 106 6.4 14.5 0.00 0.00 0.00 32 1015.7
20260905214204 33 130 4.8 11.3 0.00 0.00 0.00 33 1015.7
20260905214004 32 153 6.4 20.9 0.00 0.00 0.00 34 1015.8
20260905213826 32 133 8.0 20.9 0.00 0.00 0.00 34 1015.8
20260905213624 32 121 6.4 20.9 0.00 0.00 0.00 34 1015.8
20260905213425 32 106 6.4 20.9 0.00 0.00 0.00 33 1015.7
20260905213204 32 109 9.7 20.9 0.00 0.00 0.00 32 1015.8
20260905213004 32 96 12.9 19.3 0.00 0.00 0.00 33 1015.8
20260905212804 32 104 9.7 14.5 0.00 0.00 0.00 32 1015.9
20260905212604 32 105 8.0 14.5 0.00 0.00 0.00 31 1015.9
20260905212403 32 112 6.4 11.3 0.00 0.00 0.00 32 1015.9
20260905212204 32 121 6.4 9.7 0.00 0.00 0.00 31 1015.9